Regional Weather Roundup
Issued by NWS

Home | Current Version | Previous Version | Text Only | Print | Product List | Glossary Off
Versions: 1 2 3 4 5 6 7 8 9 10 11 12 13 14 15 16 17 18 19 20 21 22 23 24 25 26 27 28 29 30 31 32 33 34 35 36 37 38 39 40 41 42 43 44 45 46 47 48

000
ASUS43 KDMX 231507
RWRIA

WEATHER ROUNDUP FOR IOWA
NATIONAL WEATHER SERVICE DES MOINES IA
1000 AM CDT TUE SEP 23 2014

NOTE: "FAIR" INDICATES FEW OR NO CLOUDS BELOW 12,000 FEET WITH NO
SIGNIFICANT WEATHER AND/OR OBSTRUCTIONS TO VISIBILITY.

* - THESE STATIONS ARE NOT NWS STATIONS...THUS NOT UNDER NWS
QUALITY CONTROL.  THEY ALSO DO NOT REPORT WEATHER SUCH
AS PRECIPITATION OR FOG.

IAZ001>003-012>014-020>022-031>034-043>046-231600-
   NORTHWEST IOWA

CITY           SKY/WX    TMP DP  RH WIND       PRES   REMARKS
CARROLL *      MOSUNNY   61  55  82 S8        30.23S
CHEROKEE *     DRIZZLE   59  55  88 S5        30.20R
DENISON *      MOSUNNY   59  54  82 SE8G15    30.19S
LE MARS *      PTSUNNY   59  55  88 S12       30.17S
ORANGE CITY *  LGT RAIN  57  54  88 SE6       30.17S
SHELDON *      CLOUDY    55  55 100 SE7       30.17S
SIOUX CITY     LGT RAIN  59  56  89 S7        30.17R
SPENCER        CLOUDY    57  53  86 S9        30.21R
STORM LAKE *   SUNNY     57  57 100 S7        30.21S
$$

IAZ055>058-069>071-079>083-090>094-231600-
   SOUTHWEST IOWA

CITY           SKY/WX    TMP DP  RH WIND       PRES   REMARKS
ATLANTIC *     MOSUNNY   61  52  72 S8        30.22S HAZE
AUDUBON *      SUNNY     59  52  77 SE3       30.24S
CLARINDA *     MOSUNNY   61  54  77 S6        30.24R
COUNCIL BLFS * MOSUNNY   59  57  94 S8        30.19S
CRESTON *      SUNNY     59  52  77 SE8G15    30.25F
HARLAN  *      SUNNY     61  55  82 S8        30.24F
LAMONI         PTSUNNY   63  52  67 S9        30.27S
RED OAK *      CLOUDY    59  54  82 S8        30.22F
SHENANDOAH *   PTSUNNY   61  54  77 S10       30.22S
$$

IAZ047>049-059>061-072>074-084-231600-
   CENTRAL IOWA

CITY           SKY/WX    TMP DP  RH WIND       PRES   REMARKS
AMES           MOSUNNY   62  54  74 S9        30.26F
ANKENY *       SUNNY     63  52  67 VRB7      30.27S
CHARITON *     SUNNY     61  52  72 S7        30.28S
DES MOINES     CLOUDY    62  52  69 S8        30.27S
GRINNELL*      MOSUNNY   59  50  72 S7        30.30S
KNOXVILLE *    SUNNY     61  50  67 S10       30.28R
MARSHALLTOWN   MOSUNNY   62  52  69 S7        30.28S
PELLA *        MOSUNNY   66  54  63 S8        30.30S
PERRY *          N/A     63  54  72 S10       30.25S
$$

IAZ004>006-015-016-023>025-035-036-231600-
   NORTH CENTRAL IOWA

CITY           SKY/WX    TMP DP  RH WIND       PRES   REMARKS
ALGONA *       SUNNY     63  54  72 S12       30.24S
CLARION *        N/A     64  52  63 S10       30.25F
ESTHERVILLE    CLOUDY    57  52  83 S10       30.21S
FORT DODGE *   PTSUNNY   61  54  77 S5        30.25F
MASON CITY     MOSUNNY   59  54  83 S9        30.28R
FOREST CITY *    N/A     63  54  72 S10       30.26S
IOWA FALLS *     N/A     63  52  67 S9        30.28F
$$

IAZ007>011-017>019-026>030-037>042-050>054-066-231600-
   NORTHEAST IOWA

CITY           SKY/WX    TMP DP  RH WIND       PRES   REMARKS
CEDAR RAPIDS   SUNNY     60  51  72 S6        30.31R
CHARLES CITY * SUNNY     61  52  72 VRB7      30.30R
CLINTON *      SUNNY     61  48  63 S6        30.37R
DECORAH *      SUNNY     63  52  67 S6        30.30R
DUBUQUE        SUNNY     61  49  64 SW7       30.33R
MONTICELLO *   SUNNY     63  48  59 S6        30.32S
OELWEIN *      SUNNY     63  52  67 S9        30.32R
WATERLOO       MOSUNNY   61  51  70 S8        30.29R
$$

IAZ064-065-067-068-078-231600-
   EAST CENTRAL IOWA

CITY           SKY/WX    TMP DP  RH WIND       PRES   REMARKS
DAVENPORT      SUNNY     63  45  51 S8        30.34R
IOWA CITY      SUNNY     60  51  72 S6        30.34R
MT. PLEASANT * MOSUNNY   64  46  52 S6        30.33R
MUSCATINE *    SUNNY     61  48  63 S6        30.34R
QUAD CITIES    SUNNY     63  48  58 CALM      30.33R
$$

IAZ062-063-075>077-085>089-095>099-231600-
   SOUTHEAST IOWA

CITY           SKY/WX    TMP DP  RH WIND       PRES   REMARKS
BURLINGTON     SUNNY     62  48  60 S7        30.33R
FAIRFIELD *    SUNNY     63  48  59 S10       30.32R
FORT MADISON * SUNNY     66  48  52 S6        30.34R
KEOKUK *       MOSUNNY   64  50  59 S5        30.32R
OSKALOOSA *      N/A     64  54  68 S10       30.31R
CENTERVILLE *  SUNNY     63  54  72 S9        30.31S
OTTUMWA        PTSUNNY   61  51  70 S8        30.31R
WASHINGTON *   SUNNY     64  50  59 S7        30.32R
$$

ABBREVIATIONS USED IN REMARKS
   TC - TEMPERATURES IN CELSIUS
  WCI - WIND CHILL INDEX
   HX - HEAT INDEX
  VSB - VISIBILITY
$$




USA.gov is the U.S. government's official web portal to all federal, state and local government web resources and services.